Regional Weather Roundup
Issued by NWS Jackson, KY

Home | Current Version | Previous Version | Text Only | Print | Product List | Glossary Off
Versions: 1 2 3 4 5 6 7 8 9 10 11 12 13 14 15 16 17 18 19 20 21 22 23 24 25 26 27 28

000
ASUS43 KJKL 200010
RWRJKL

EAST KENTUCKY HOURLY WEATHER ROUNDUP
NATIONAL WEATHER SERVICE JACKSON KY
800 PM EDT WED JUL 19 2017

NOTE: "FAIR" INDICATES FEW OR NO CLOUDS BELOW 12,000 FEET WITH
NO SIGNIFICANT WEATHER AND/OR OBSTRUCTIONS TO VISIBILITY.

* THESE REPORTS ARE NOT UNDER NWS QUALITY CONTROL AND MAY NOT
  REPORT WEATHER SUCH AS PRECIPITATION AND FOG.

KYZ079-080-083-085-087-088-110-112-115-119-120-200100
...EASTERN KENTUCKY...

CITY           SKY/WX    TMP DP  RH WIND       PRES   REMARKS
JACKSON        CLEAR     85  69  58 CALM      30.12R
6HR MIN TEMP:  85; 6HR MAX TEMP:  90;

LONDON         CLEAR     85  64  49 NW6       30.12R
6HR MIN TEMP:  85; 6HR MAX TEMP:  91;

SOMERSET*      CLEAR     84  64  51 N5        30.12R
MONTICELLO*    CLEAR     84  72  67 NW6       30.12S
6HR MIN TEMP:  84; 6HR MAX TEMP:  89;

WILLIAMSBURG*  CLEAR     84  64  51 W3        30.11S
MIDDLESBORO*   PTCLDY    85  70  60 CALM      30.11S HX  90
6HR MIN TEMP:  85; 6HR MAX TEMP:  91;

HARLAN APT*    PTCLDY    81  68  65 CALM      30.13R
PIKE CO APT*     N/A     84  69  59 CALM      30.12R
BIG SANDY APT* CLEAR     84  70  61 CALM      30.11R
6HR MIN TEMP:  84; 6HR MAX TEMP:  90;

MOREHEAD APT*  CLEAR     84  66  54 CALM      30.11S
ASHLAND*         N/A    N/A N/A N/A MISG        N/A
$$

KYZ035-036-041-042-044-050-067-078-099-200100
...CENTRAL KENTUCKY...

CITY           SKY/WX    TMP DP  RH WIND       PRES   REMARKS
MT STERLING*   CLEAR     84  68  58 CALM      30.12S
FLEMING/MASON* CLEAR     85  64  49 NW3       30.10S
DANVILLE*      CLEAR     84  63  48 NW3       30.12S
LEXINGTON      CLEAR     86  66  51 W5        30.11R
6HR MIN TEMP:  86; 6HR MAX TEMP:  90;

FRANKFORT      PTCLDY    85  64  49 W3        30.09S
6HR MIN TEMP:  85; 6HR MAX TEMP:  90;

LOUISVILLE     PTSUNNY   88  69  53 NE9       30.07S HX  92
6HR MIN TEMP:  88; 6HR MAX TEMP:  95;

LEBANON*         N/A     84  68  58 W5        30.11R
GLASGOW*       MOSUNNY   86  69  56 CALM      30.10S HX  90
BOWLING GREEN  MOSUNNY   90  72  55 NE3       30.09S HX  97
6HR MIN TEMP:  88; 6HR MAX TEMP:  94;

$$

KYZ091>093-OHZ055-061-077-WVZ005-015-034-035-042-200100
...SOUTHERN OHIO/WEST VIRGINIA...

CITY           SKY/WX    TMP DP  RH WIND       PRES   REMARKS
COVINGTON      MOSUNNY   86  65  49 NW8       30.09S
COLUMBUS       PTCLDY    85  71  63 W10       30.06S HX  90
DAYTON         MOSUNNY   85  66  53 W3        30.10S
WILMINGTON     CLEAR     84  68  58 W8        30.09S
HUNTINGTON     PTCLDY    87  70  56 NW3       30.07R HX  92
CHARLESTON     PTCLDY    84  70  62 CALM      30.08R
PINEVILLE*     CLEAR     78  71  79 MISG      30.18S
BECKLEY        CLEAR     81  63  54 N6        30.18R
BLUEFIELD      CLEAR     78  60  53 W5        30.21R
LOGAN CO APT*    N/A     84  68  58 CALM      30.12S
$$

VAZ002-007-008-TNZ017-027-036-066-071-200100
...SOUTHWEST VIRGINIA/EAST TENNESSEE...

CITY           SKY/WX    TMP DP  RH WIND       PRES   REMARKS
WISE*          MOCLDY    81  63  54 N3        30.21S
JONESVILLE*      N/A     86  68  54 CALM      30.13S
ABINGDON*      CLEAR     86  63  46 CALM      30.15S
BRISTOL        PTCLDY    88  62  41 W6        30.11S
MORRISTOWN*    CLEAR     88  68  51 NW6       30.10S HX  91
SEVIERVILLE*   CLEAR     88  63  42 N3        30.08S
KNOXVILLE      PTCLDY    89  61  38 W7        30.08S
LAFOLLETTE*    CLEAR     86  66  51 CALM      30.14R
OAK RIDGE      CLEAR     90  64  42 VRB3      30.10S HX  91
CROSSVILLE     CLEAR     82  67  60 N5        30.17S
NASHVILLE      PTSUNNY   81  73  76 CALM      30.10F
$$

...KEY TO REMARKS...
VSB - VISIBILITY IN MILES
WCI - WIND CHILL INDEX
HX  - HEAT INDEX

$$




USA.gov is the U.S. government's official web portal to all federal, state and local government web resources and services.